Weather in Barashi

Ukraine / Zhytomyr Region     50°42′55″N   28°01′50″E
temp.,
°C
wind,
m/s
gust,
m/s
humid.,
%
clouds,
%
prec.,
mm/h
press.,
hPa
HPBL,
m
6 may, thu
thu600:00+10s6159198 0.7 1003403
03:00+10ssw6139567 1.4 1002467
06:00+9w81292100 0.6 1003755
09:00+6wnw71290100 1.3 1008661
12:00+12w91157100 0.1 10091890
15:00+13w8104267 0.1 10112223
18:00+12w58505 0.0 10112146
21:00+8wsw496670 0.0 1013184
7 may, fri
fri700:00+6ssw3977100 0.0 1013194
03:00+5s498346 0.0 1013151
06:00+5s4118193 0.0 1012207
09:00+10s51068100 0.0 1011382
12:00+14s81167100 0.1 10081468
15:00+12wsw31079100 1.1 1006372
18:00+13wsw51178100 0.1 1005837
21:00+10wsw3792100 0.1 1006142
8 may, sat
sat800:00+10w3891100 0.5 1006222
03:00+8w498890 1.1 1008461
06:00+5w71288100 0.1 1011797
09:00+6wnw8117746 0.1 10131160
12:00+10wnw9115364 0.1 10141968
15:00+10wnw9115679 0.4 10151887
18:00+10nw685719 0.1 10171840
21:00+5wnw35723 0.1 101971
9 may, sun
sun900:00+3w36810 0.0 1021109
03:00+2w37925 0.0 1022132
06:00+2w37941 0.0 1024131
09:00+8wnw46711 0.0 1025549
12:00+12wnw34505 0.0 10251562
15:00+14w34415 0.0 10252022
18:00+14wsw334955 0.0 10251866
21:00+8ssw22625 0.0 102613
10 may, mon
mon1000:00+7sse33645 0.0 102731
03:00+5s34715 0.0 102751
06:00+5sse34715 0.0 102757
09:00+11se45615 0.0 1027342
12:00+15se56500 0.0 10271282
15:00+17se55460 0.0 10251384
18:00+17se45560 0.0 10241270
21:00+11ese49783 0.0 1025142